Theta_e
308 308 309 307 305 307 307 308 304 306 306 309 311 311 312 312 312 311 311 313 313 312 312 314 315 316 316 311 310 314 312 311 310 310 310 308 308 306 305 304 303 302 302 301
305 307 307 305 307 308 308 308 308 307 307 312 313 313 310 311 311 310 311 312 311 313 312 313 315 315 312 307 308 312 311 309 308 304 306 307 305 304 304 303 303 304 304 301
302 307 307 304 307 307 308 309 308 304 307 311 309 308 310 311 311 310 310 309 309 311 313 314 316 315 309 306 312 311 309 305 303 303 307 305 306 305 305 303 305 304 303 302
305 305 297 309 313 310 308 308 310 309 309 309 308 310 313 312 310 308 308 310 311 312 311 315 316 312 307 312 311 309 307 306 306 306 304 306 305 305 305 305 305 305 303 304
303 302 306 306 310 309 307 308 310 309 309 308 309 310 310 311 310 308 309 311 313 313 315 316 314 309 313 310 309 307 304 305 304 304 305 304 304 303 304 304 304 303 305 304
306 300 298 309 311 312 313 304 311 310 308 307 309 303 307 310 309 309 309 312 313 313 314 315 313 315 311 309 308 305 304 305 305 308 306 304 304 303 305 304 303 303 303 305
303 304 307 312 311 313 304 306 312 310 309 309 307 309 310 310 310 309 310 311 313 313 314 314 315 313 310 309 306 307 306 306 306 307 309 308 308 308 307 305 303 302 302 303
307 303 300 313 311 308 313 314 311 310 310 310 311 310 307 308 308 308 310 312 314 315 314 314 314 312 309 308 308 308 306 306 305 306 308 306 308 307 307 305 303 302 302 302
311 310 317 318 316 318 317 312 310 310 312 312 309 306 307 306 308 311 314 315 315 314 312 313 313 313 310 308 309 307 305 305 305 306 307 309 308 306 305 304 303 301 301 301
311 313 313 315 316 316 315 311 311 313 312 312 308 308 307 309 310 311 314 315 315 313 310 310 313 313 311 311 309 307 305 305 306 307 308 309 307 308 306 304 302 301 300 300
312 314 314 315 315 314 312 311 313 312 312 312 310 309 310 309 312 313 314 315 314 311 310 311 314 314 313 311 309 306 306 305 306 306 307 307 308 307 306 306 300 302 301 302
310 316 315 314 316 314 311 310 313 312 311 313 312 311 313 310 312 314 315 315 312 311 312 313 314 314 313 314 309 306 305 305 305 305 306 305 306 307 297 298 296 294 293 298
315 319 318 317 316 314 311 313 313 313 313 311 312 313 312 312 314 312 314 313 312 312 313 314 313 313 313 313 309 307 307 306 305 304 306 305 307 306 306 300 298 296 295 295
319 318 314 314 311 313 312 313 313 314 313 313 313 314 312 312 314 313 313 313 313 313 313 312 312 312 311 311 308 308 307 299 305 305 305 305 306 308 307 307 307 307 299 300
317 320 317 317 314 312 314 313 312 312 312 312 314 314 312 312 312 315 315 314 313 312 311 311 310 310 311 310 307 307 307 305 306 307 307 305 308 308 308 308 306 308 307 302
317 317 314 312 311 311 313 313 312 312 312 312 313 313 313 314 314 314 314 314 313 312 310 311 310 310 311 309 307 309 307 300 301 306 305 306 306 307 307 307 306 306 305 305
314 312 312 310 310 310 312 313 313 313 312 313 312 314 313 313 312 312 312 314 313 312 311 311 311 311 310 312 309 310 308 308 295 306 306 306 306 307 307 307 306 301 302 302
319 317 315 314 312 311 312 313 313 313 313 314 313 313 312 311 311 311 312 313 312 310 311 310 311 309 309 310 310 310 309 307 305 306 307 306 306 306 306 305 305 304 304 304
317 315 315 314 313 313 313 312 313 314 314 314 313 311 312 313 312 312 313 311 309 309 309 310 305 306 309 305 303 311 308 305 304 305 306 300 307 306 304 303 303 302 302 302
314 314 313 313 314 314 313 313 312 313 313 314 312 312 311 312 312 312 312 310 310 310 312 310 311 310 309 307 302 309 308 305 305 304 305 303 304 305 306 297 302 302 302 302
312 311 312 312 312 313 312 310 310 310 311 312 311 310 310 313 312 312 311 309 312 311 311 305 308 310 310 303 304 309 308 307 305 303 302 303 303 303 303 304 303 303 302 302
312 311 312 312 311 310 310 310 310 310 310 310 311 311 311 311 312 312 314 311 312 289 309 311 308 294 302 289 308 307 307 307 307 305 302 302 302 301 301 302 302 302 302 302
313 312 313 312 310 310 310 311 309 310 309 310 310 311 311 313 314 311 308 313 313 301 311 309 293 290 287 305 310 309 308 307 306 307 303 303 303 301 300 301 301 301 302 302
313 313 313 313 310 308 308 309 311 310 311 310 311 313 313 310 311 315 312 298 291 298 307 304 299 290 285 309 309 310 310 309 307 305 304 293 301 301 303 301 300 301 301 300
313 314 313 311 309 307 309 311 311 312 311 311 312 314 315 316 314 312 315 311 292 299 308 288 291 290 306 310 309 308 308 307 305 304 302 301 300 300 300 301 301 301 300 301
314 312 311 312 310 308 309 311 309 310 309 310 312 312 311 313 313 311 313 302 310 302 309 305 309 309 309 308 307 307 307 307 305 303 300 301 300 300 300 300 300 300 299 301
314 306 311 309 310 310 310 309 308 308 310 312 310 311 312 312 311 308 300 310 309 309 309 309 310 303 307 306 306 306 306 306 297 302 303 301 300 300 300 300 300 300 300 300
Wind_Speed
3 5 8 7 6 7 8 8 8 9 8 10 9 9 11 12 13 14 15 18 14 10 9 15 14 13 13 12 9 12 11 13 11 13 12 13 13 12 12 11 10 10 10 11
7 6 9 9 7 5 6 10 6 1 14 8 8 10 12 11 11 13 16 14 17 12 12 16 14 13 10 9 9 11 14 15 14 11 14 12 10 12 9 10 11 10 12 12
6 7 10 9 7 5 6 9 9 10 9 9 10 11 9 11 14 15 14 14 13 14 13 12 11 11 8 6 9 10 14 13 10 9 11 12 12 13 11 11 10 11 11 12
7 5 7 10 6 5 4 6 10 8 9 10 11 8 13 16 15 13 12 12 10 10 12 12 12 9 5 7 10 12 13 13 11 13 12 14 12 13 13 10 12 9 11 12
5 7 10 8 4 4 6 10 8 9 9 11 11 1 16 14 13 12 10 8 9 8 12 11 10 5 6 10 13 14 13 12 11 11 12 13 14 14 13 12 12 10 9 12
6 5 6 12 6 3 3 5 7 8 9 11 12 7 13 14 13 10 9 6 9 15 11 10 6 5 9 12 13 13 10 10 9 10 12 11 11 11 11 8 9 9 11 11
6 2 8 7 3 3 7 8 6 7 8 9 8 8 9 9 9 6 4 7 12 8 7 7 7 6 11 12 11 11 10 9 9 10 10 13 12 9 8 7 6 9 9 9
1 4 7 2 4 6 8 7 6 7 8 5 8 10 7 7 6 4 6 6 8 9 7 7 7 7 10 10 9 9 8 8 7 7 8 7 11 9 10 9 11 11 10 8
8 7 9 11 13 9 7 8 7 7 6 7 9 8 7 5 4 5 6 8 7 6 9 8 8 8 10 7 7 8 6 6 6 7 8 9 9 11 11 11 9 8 8 8
8 10 11 11 10 9 9 8 7 7 6 9 10 8 8 5 2 6 8 7 6 7 8 6 7 8 7 8 5 7 5 4 5 6 5 9 6 7 10 10 7 8 7 8
10 11 11 9 9 9 9 7 9 7 7 9 10 9 8 4 5 7 5 6 7 8 3 7 7 7 6 6 5 6 5 3 4 4 6 6 7 9 8 8 5 7 6 6
7 17 4 15 11 9 8 7 6 9 8 9 8 8 10 3 3 5 6 8 7 6 6 7 8 7 5 6 6 5 4 4 5 4 5 5 4 4 5 4 2 2 1 6
11 11 14 14 11 9 8 8 8 9 9 11 8 5 6 6 6 4 4 9 7 8 10 7 7 8 6 6 7 4 2 7 4 4 2 3 3 3 4 1 2 2 4 5
15 16 15 13 11 10 9 9 7 9 8 9 8 7 4 4 8 8 9 8 8 7 7 8 8 10 6 5 6 4 1 1 5 5 6 5 4 5 4 6 5 6 1 8
11 11 12 13 12 10 10 10 10 9 9 8 6 6 5 4 4 5 5 7 6 7 6 7 7 8 7 7 4 3 5 7 5 4 5 5 4 5 6 5 3 6 4 1
13 14 14 12 11 9 9 9 9 8 8 6 7 6 5 6 4 6 5 5 3 5 5 5 6 5 4 5 1 3 7 3 5 3 3 5 5 5 7 7 7 6 8 10
15 14 13 11 10 9 8 8 8 7 7 8 5 5 6 6 5 4 4 7 7 7 7 7 5 4 4 2 3 2 6 4 3 2 6 6 6 6 7 6 7 4 5 8
9 11 10 10 9 8 8 7 9 8 7 11 6 5 6 3 4 4 4 5 6 6 7 8 8 7 3 2 4 3 4 3 2 3 3 3 5 5 5 5 5 6 4 2
11 10 9 9 8 8 8 8 9 7 7 6 6 4 4 5 5 4 4 4 5 6 6 6 0 4 2 3 8 4 5 5 4 2 3 1 2 4 4 5 6 7 9 8
12 10 10 9 7 7 8 8 7 7 6 6 5 5 5 5 5 5 6 6 6 6 5 4 2 4 2 2 9 3 4 2 5 4 4 4 4 3 4 2 5 5 5 7
12 11 10 9 8 7 8 9 9 8 7 5 5 4 4 5 4 4 3 3 6 3 2 3 5 7 4 4 8 2 3 2 2 3 5 5 6 7 7 6 6 6 6 8
11 10 9 10 9 8 8 8 7 7 6 6 4 5 5 5 4 3 3 4 6 2 8 4 7 6 5 8 7 5 5 3 2 2 4 4 4 5 7 6 7 6 6 5
10 9 9 9 9 8 8 7 7 7 7 6 6 5 3 1 2 2 4 2 2 4 5 7 4 5 6 9 4 1 2 2 4 1 2 4 4 4 4 4 6 6 5 6
10 9 8 9 9 8 8 7 6 6 6 5 4 4 4 3 4 2 5 5 3 2 5 6 3 6 8 10 3 2 2 2 3 4 6 2 5 5 3 4 5 6 7 5
9 9 9 9 8 6 6 7 6 6 6 5 5 4 1 2 3 2 1 5 5 5 3 6 6 7 9 8 4 4 5 5 8 7 4 4 4 3 5 6 5 6 7 6
10 7 7 7 6 6 6 6 5 5 5 6 4 3 4 3 3 4 3 4 3 4 5 8 4 4 8 5 7 7 5 4 4 2 5 4 4 4 5 5 5 5 6 7
7 6 7 6 6 6 6 5 5 6 6 5 5 5 5 4 3 4 2 2 5 6 2 2 2 2 5 6 6 4 4 3 4 5 2 3 4 5 4 5 5 4 5 7
Wind_Direction
90 69 75 80 65 46 53 26 7 50 55 40 23 354 356 352 12 8 351 22 29 5 13 355 6 13 26 32 359 355 21 21 22 10 10 0 18 29 25 17 10 16 17 19
128 120 103 95 82 67 55 6 65 221 88 41 18 357 354 23 3 3 4 13 8 3 347 5 19 30 37 13 345 340 16 28 24 11 8 359 24 23 18 17 4 17 25 20
126 154 153 137 53 34 100 48 8 32 29 16 6 358 4 30 9 6 5 353 350 359 3 14 26 31 39 348 336 19 37 35 25 10 359 29 16 19 23 17 8 28 22 13
132 179 221 81 71 66 69 51 41 38 21 17 8 12 46 32 19 14 359 4 9 5 10 20 50 54 4 355 24 20 42 28 19 18 15 24 18 22 18 12 8 23 19 25
174 200 111 154 121 16 339 103 46 7 14 7 351 74 81 39 30 24 12 11 4 6 37 49 52 49 8 37 31 23 45 32 22 24 25 23 18 10 8 6 12 11 19 21
219 152 194 81 95 23 278 151 49 8 20 5 345 338 40 18 29 35 14 37 2 54 46 68 66 37 42 38 30 31 44 47 23 31 36 26 18 12 12 8 9 9 14 11
185 62 94 75 49 308 252 70 59 29 32 17 25 41 40 27 44 24 77 55 81 53 50 74 55 56 47 38 32 41 34 49 26 21 27 25 20 15 12 10 26 18 16 18
308 229 129 95 182 319 88 90 45 60 38 24 52 55 59 61 46 12 71 71 54 55 60 56 66 56 54 44 29 61 45 30 34 26 27 31 26 23 30 25 20 22 19 17
7 67 100 74 86 92 83 80 63 58 59 53 70 75 78 88 112 127 78 67 71 88 80 72 59 47 58 54 30 64 51 31 23 33 23 32 42 41 33 25 20 14 16 13
169 131 112 107 103 96 88 87 81 86 84 89 95 100 110 124 162 82 67 52 67 77 72 71 62 62 61 59 31 40 59 8 28 44 22 35 45 32 44 25 25 19 15 16
104 126 128 135 121 117 110 105 106 87 93 100 105 118 113 85 99 82 88 88 75 79 84 83 63 51 57 51 52 24 37 2 14 49 26 52 43 34 40 50 25 24 17 21
147 152 251 135 135 136 121 112 116 124 113 92 120 129 126 91 73 83 67 79 60 75 36 58 57 74 60 47 71 24 340 33 50 9 20 54 24 75 93 69 70 149 207 10
114 117 114 124 127 122 124 126 122 123 122 115 127 105 86 113 79 58 93 84 72 33 39 38 74 71 55 58 65 44 359 5 38 1 11 53 24 15 56 137 267 73 49 49
111 119 126 139 137 123 118 115 136 119 110 115 128 129 136 104 96 38 11 61 72 54 38 59 55 71 94 76 94 30 350 226 27 356 28 349 357 12 19 49 23 64 97 26
139 144 135 120 129 132 139 146 150 137 125 130 142 132 129 144 98 101 94 69 79 56 41 47 57 63 71 104 84 356 16 51 354 11 24 329 342 356 37 32 29 32 55 28
119 122 133 142 139 146 151 162 151 131 134 136 145 149 132 95 123 89 100 94 64 49 45 47 33 42 78 109 107 137 109 30 283 38 19 23 16 354 22 33 15 7 32 23
139 148 150 145 152 155 162 162 145 146 147 141 104 128 139 145 115 111 80 67 50 40 26 15 30 47 60 81 273 290 105 89 339 68 40 20 20 6 21 35 61 66 4 29
146 142 150 152 153 158 150 151 139 157 161 128 178 151 155 156 106 103 89 98 94 65 45 42 7 1 34 176 283 259 90 107 81 19 37 56 28 27 46 18 38 31 10 30
129 134 131 135 144 153 150 159 163 152 142 166 159 149 149 130 122 111 92 61 56 62 62 63 51 323 40 36 312 293 71 77 322 355 23 76 39 31 26 29 20 12 13 12
121 116 117 125 133 152 145 150 157 163 155 154 167 172 161 155 151 113 82 73 53 44 32 53 310 93 1 144 288 344 102 356 355 351 18 333 353 358 0 32 354 15 359 349
130 130 127 135 125 125 137 156 171 174 161 191 168 178 169 171 171 138 215 164 107 113 2 187 1 357 105 282 279 47 41 43 240 30 348 354 356 348 351 346 353 354 355 358
134 136 137 131 136 140 147 162 156 161 179 168 208 218 169 173 185 142 59 47 110 194 284 57 41 29 6 332 292 23 341 39 320 332 344 319 339 342 346 350 342 348 360 353
134 136 144 140 144 145 157 162 164 171 178 176 201 209 131 122 270 107 163 146 176 114 297 66 62 332 317 284 259 111 20 332 305 23 329 308 333 349 347 352 346 340 346 344
136 144 139 122 131 160 160 161 163 168 177 169 224 231 204 198 142 107 116 101 120 4 19 91 107 292 298 286 309 300 263 188 324 57 359 342 344 352 345 354 346 346 335 346
141 138 134 156 151 162 159 155 154 171 175 176 185 156 182 354 342 59 16 113 127 259 181 159 178 255 272 290 339 335 310 45 31 343 56 354 338 354 342 337 344 358 333 343
147 156 144 164 155 162 171 165 175 170 187 190 142 155 193 211 203 244 186 337 135 196 262 167 193 229 292 353 341 331 332 84 89 28 339 356 340 343 322 342 341 22 336 312
140 127 133 154 165 172 161 162 182 200 201 172 181 173 219 237 209 269 278 191 227 224 244 302 258 123 342 348 303 337 320 80 58 358 28 340 338 327 329 336 336 10 350 353